KINEIS-3D

Last updated on Fri Sep 11 2026 00:02:53 GMT+0000 (Coordinated Universal Time)

1 61221U 24172B 26252.81380365 .00001206 00000+0 19867-3 0 9991 2 61221 98.0412 341.8161 0000931 159.7519 200.3725 14.72296910105806
UTC large
Height (km)
Speed (km/s)
/
Latitude / Longitude
Inclination (degrees)
Orbital Period (minutes)
Azimuth
Elevation
Range (km)
Doppler Factor

Next 0 passes for location: London (51.5072 / 0.1276)

No passes found over London.
KINEIS-3D